Flag for Poland Weather past 2 weeks in Grudziądz, Poland

Now
58 °F

Overcast.


Feels Like: 58 °F
Forecast: 47 / 63 °F
Wind: 5 mph from East

Location: Torun

Current Time: Oct 1, 2014 at 3:07:09 PM

Latest Report: Oct 1, 2014 at 2:00 PM


Visibility: 11 mi

Pressure: 30.35 "Hg

Humidity: 79%

Dew point: 52 °F

Location of GrudziądzLocation

Historic Weather in Grudziądz — Graph

°F

Grudziądz temperature yesterday

Maximum temperature yesterday: 62 °F (at 3:00 PM)
Minimum temperature yesterday: 48 °F (at 2:00 AM)
Average temperature yesterday: 55 °F

Past Weeks' High & Low Weather Summary

 TemperatureHumidityPressure
High74 °F (Sep 20, 2:00 PM)98% (Sep 20, 8:00 AM)30.35 "Hg (Sep 20, 8:00 AM)
Low32 °F (Sep 24, 7:00 AM)34% (Sep 16, 4:00 PM)29.67 "Hg (Sep 22, 5:00 AM)
Average55 °F79%30.06 "Hg
* Reported Sep 16 1:00 PM — Oct 1 1:00 PM, Grudziądz, Weather by CustomWeather, © 2014

Note: Actual official high and low records may vary slightly from our data, if they occured in-between our weather recording intervals... More about our weather records

Advertising

Grudziądz weather history for previous 24 hours

 ConditionsComfort  
Time TempWeatherWind HumidityBarometerVisibility
1:00 PM
Oct 1
58 °FFog.3 mph86%30.35 "Hg6 mi
12:00 PM57 °FFog.3 mph91%30.35 "Hg3 mi
11:00 AM57 °FFog.2 mph92%30.34 "Hg1 mi
10:00 AM57 °FFog.3 mph95%30.33 "Hg2 mi
9:00 AM56 °FFog.1 mph97%30.33 "Hg2 mi
8:00 AM55 °FFog.1 mph97%30.32 "Hg2 mi
7:00 AM55 °FFog.1 mph97%30.31 "Hg2 mi
6:00 AM55 °FOvercast.2 mph97%30.31 "Hg2 mi
5:00 AM56 °FSprinkles. Overcast.1 mph97%30.30 "Hg2 mi
4:00 AM56 °FSprinkles. Overcast.1 mph96%30.30 "Hg2 mi
3:00 AM56 °FSprinkles. Overcast.1 mph96%30.30 "Hg2 mi
2:00 AM57 °FSprinkles. Overcast.1 mph96%30.29 "Hg2 mi
1:00 AM57 °FLight rain. Overcast.1 mph96%30.29 "Hg1 mi
12:00 AM56 °FFog.No wind96%30.28 "Hg1 mi
11:00 PM
Sep 30
56 °FFog.No wind96%30.28 "Hg1 mi
10:00 PM56 °FFog.No wind96%30.27 "Hg1 mi
9:00 PM57 °FFog.No wind96%30.27 "Hg1 mi
8:00 PM57 °FOvercast.No wind95%30.26 "Hg1 mi
7:00 PM57 °FSprinkles. Overcast.1 mph93%30.26 "Hg1 mi
6:00 PM58 °FLight rain. Overcast.No wind92%30.25 "Hg1 mi
5:00 PM58 °FLight rain. Overcast.1 mph89%30.24 "Hg3 mi
4:00 PM60 °FLight rain. Overcast.1 mph84%30.24 "Hg4 mi
3:00 PM62 °FLight rain. Overcast.1 mph80%30.24 "Hg4 mi
Weather by CustomWeather, © 2014

See weather overviewHow to use our weather pages